Time,TemperatureF,DewpointF,PressureIn,WindDirection,WindDirectionDegrees,WindSpeedMPH,WindSpeedGustMPH,Humidity,HourlyPrecipIn,Conditions,Clouds,dailyrainin,SoftwareType,DateUTC
2017-03-28 00:00:00,46.1,43.0,30.17,SE,131,9.0,16.0,87,0.00,,,0.00,weatherlink.com 1.10,2017-03-28 07:00:00,
2017-03-28 00:15:00,45.8,43.0,30.17,East,101,10.0,17.0,88,0.01,,,0.01,weatherlink.com 1.10,2017-03-28 07:15:00,
2017-03-28 00:30:00,45.4,42.0,30.17,SE,133,14.0,21.0,89,0.01,,,0.01,weatherlink.com 1.10,2017-03-28 07:30:00,
2017-03-28 00:45:00,44.8,42.0,30.18,SE,130,13.0,19.0,91,0.01,,,0.01,weatherlink.com 1.10,2017-03-28 07:45:00,
2017-03-28 01:00:00,44.7,42.0,30.18,SE,140,17.0,25.0,91,0.01,,,0.01,weatherlink.com 1.10,2017-03-28 08:00:00,
2017-03-28 01:15:00,44.8,42.0,30.17,SE,144,17.0,21.0,91,0.00,,,0.01,weatherlink.com 1.10,2017-03-28 08:15:00,
2017-03-28 01:30:00,44.9,42.0,30.17,SE,141,14.0,18.0,90,0.00,,,0.01,weatherlink.com 1.10,2017-03-28 08:30:00,
2017-03-28 01:45:00,45.3,42.0,30.17,SSE,168,16.0,22.0,88,0.00,,,0.01,weatherlink.com 1.10,2017-03-28 08:45:00,
2017-03-28 02:00:00,45.3,42.0,30.16,SE,146,10.0,22.0,87,0.00,,,0.01,weatherlink.com 1.10,2017-03-28 09:00:00,
2017-03-28 02:15:00,45.4,42.0,30.16,SE,131,9.0,19.0,87,0.00,,,0.01,weatherlink.com 1.10,2017-03-28 09:15:00,
2017-03-28 02:31:00,45.4,42.0,30.15,SE,146,21.0,28.0,87,0.00,,,0.01,weatherlink.com 1.10,2017-03-28 09:31:00,
2017-03-28 02:45:00,45.5,42.0,30.14,SE,143,16.0,26.0,87,0.00,,,0.01,weatherlink.com 1.10,2017-03-28 09:45:00,
2017-03-28 03:00:00,45.6,42.0,30.13,SSE,151,18.0,23.0,87,0.00,,,0.01,weatherlink.com 1.10,2017-03-28 10:00:00,
2017-03-28 03:15:00,45.8,42.0,30.14,SE,142,19.0,30.0,86,0.00,,,0.01,weatherlink.com 1.10,2017-03-28 10:15:00,
2017-03-28 03:30:00,46.0,42.0,30.14,SE,137,14.0,29.0,86,0.00,,,0.01,weatherlink.com 1.10,2017-03-28 10:30:00,
2017-03-28 03:45:00,45.9,42.0,30.13,SE,136,17.0,34.0,86,0.00,,,0.01,weatherlink.com 1.10,2017-03-28 10:45:00,
2017-03-28 04:00:00,45.8,42.0,30.14,SE,137,18.0,28.0,86,0.00,,,0.01,weatherlink.com 1.10,2017-03-28 11:00:00,
2017-03-28 04:16:00,46.0,42.0,30.14,ESE,121,16.0,32.0,86,0.00,,,0.01,weatherlink.com 1.10,2017-03-28 11:16:00,
2017-03-28 04:31:00,46.2,42.0,30.14,East,87,11.0,27.0,85,0.00,,,0.01,weatherlink.com 1.10,2017-03-28 11:31:00,
2017-03-28 04:46:00,46.1,42.0,30.13,SSE,165,22.0,30.0,85,0.00,,,0.01,weatherlink.com 1.10,2017-03-28 11:46:00,
2017-03-28 05:01:00,46.1,42.0,30.13,SE,146,26.0,29.0,85,0.00,,,0.01,weatherlink.com 1.10,2017-03-28 12:01:00,
2017-03-28 05:16:00,46.1,42.0,30.13,SE,136,19.0,30.0,85,0.00,,,0.01,weatherlink.com 1.10,2017-03-28 12:16:00,
2017-03-28 05:31:00,46.1,42.0,30.12,SE,131,13.0,30.0,85,0.00,,,0.01,weatherlink.com 1.10,2017-03-28 12:31:00,
2017-03-28 05:46:00,46.1,42.0,30.12,ESE,119,20.0,30.0,85,0.00,,,0.01,weatherlink.com 1.10,2017-03-28 12:46:00,
2017-03-28 06:01:00,46.1,42.0,30.13,SE,145,21.0,25.0,85,0.00,,,0.01,weatherlink.com 1.10,2017-03-28 13:01:00,
2017-03-28 06:16:00,45.9,42.0,30.14,SSE,160,20.0,31.0,85,0.00,,,0.01,weatherlink.com 1.10,2017-03-28 13:16:00,
2017-03-28 06:31:00,45.8,42.0,30.12,SSE,159,13.0,27.0,85,0.00,,,0.01,weatherlink.com 1.10,2017-03-28 13:31:00,
2017-03-28 06:46:00,45.9,42.0,30.12,SE,132,13.0,27.0,85,0.00,,,0.01,weatherlink.com 1.10,2017-03-28 13:46:00,
2017-03-28 07:01:00,45.8,42.0,30.11,SE,137,16.0,32.0,85,0.00,,,0.01,weatherlink.com 1.10,2017-03-28 14:01:00,
2017-03-28 07:16:00,45.5,42.0,30.11,SE,126,15.0,27.0,86,0.00,,,0.01,weatherlink.com 1.10,2017-03-28 14:16:00,
2017-03-28 07:31:00,45.8,42.0,30.12,SE,137,14.0,28.0,86,0.00,,,0.01,weatherlink.com 1.10,2017-03-28 14:31:00,
2017-03-28 07:46:00,45.8,42.0,30.12,ESE,118,13.0,27.0,85,0.00,,,0.01,weatherlink.com 1.10,2017-03-28 14:46:00,
2017-03-28 08:01:00,45.9,42.0,30.12,SSE,156,12.0,29.0,85,0.00,,,0.01,weatherlink.com 1.10,2017-03-28 15:01:00,
2017-03-28 08:16:00,46.0,42.0,30.11,ESE,122,15.0,26.0,85,0.00,,,0.01,weatherlink.com 1.10,2017-03-28 15:16:00,
2017-03-28 08:31:00,46.1,42.0,30.11,SE,126,11.0,27.0,85,0.00,,,0.01,weatherlink.com 1.10,2017-03-28 15:31:00,
2017-03-28 08:46:00,46.2,42.0,30.11,SE,128,17.0,28.0,85,0.00,,,0.01,weatherlink.com 1.10,2017-03-28 15:46:00,
2017-03-28 09:01:00,46.4,42.0,30.11,SE,144,22.0,28.0,85,0.00,,,0.01,weatherlink.com 1.10,2017-03-28 16:01:00,
2017-03-28 09:16:00,46.7,43.0,30.12,SE,138,23.0,26.0,85,0.00,,,0.01,weatherlink.com 1.10,2017-03-28 16:16:00,
2017-03-28 09:31:00,46.6,42.0,30.12,SE,144,15.0,24.0,85,0.00,,,0.01,weatherlink.com 1.10,2017-03-28 16:31:00,
2017-03-28 09:46:00,46.7,43.0,30.11,SE,125,12.0,25.0,85,0.00,,,0.01,weatherlink.com 1.10,2017-03-28 16:46:00,
2017-03-28 10:01:00,46.8,43.0,30.11,SE,130,14.0,26.0,85,0.00,,,0.01,weatherlink.com 1.10,2017-03-28 17:01:00,
2017-03-28 10:16:00,46.9,43.0,30.12,SSE,152,23.0,24.0,85,0.00,,,0.01,weatherlink.com 1.10,2017-03-28 17:16:00,
2017-03-28 10:31:00,47.3,43.0,30.12,ESE,111,16.0,32.0,84,0.00,,,0.01,weatherlink.com 1.10,2017-03-28 17:31:00,
2017-03-28 10:46:00,47.5,43.0,30.12,SE,135,19.0,30.0,84,0.00,,,0.01,weatherlink.com 1.10,2017-03-28 17:46:00,
2017-03-28 11:01:00,47.7,43.0,30.12,SE,142,19.0,25.0,84,0.00,,,0.01,weatherlink.com 1.10,2017-03-28 18:01:00,
2017-03-28 11:16:00,47.8,43.0,30.12,ESE,115,14.0,26.0,84,0.00,,,0.01,weatherlink.com 1.10,2017-03-28 18:16:00,
2017-03-28 11:31:00,48.2,43.0,30.11,SE,144,9.0,24.0,83,0.00,,,0.01,weatherlink.com 1.10,2017-03-28 18:31:00,
2017-03-28 11:46:00,48.3,43.0,30.12,SE,126,11.0,24.0,83,0.00,,,0.01,weatherlink.com 1.10,2017-03-28 18:46:00,
2017-03-28 12:01:00,48.4,44.0,30.12,SE,140,19.0,26.0,83,0.00,,,0.01,weatherlink.com 1.10,2017-03-28 19:01:00,